1500091200.36,48825,17.13,73588.3,-0.59,-1.09,-1.05,0,*63
1500091201.58,48826,17.13,73588.8,-0.57,-1.05,-1.17,0,*61
1500091202.84,48827,17.19,73590.8,-0.59,-1.09,-1.09,0,*6D
1500091204.08,48828,17.19,73590.5,-0.57,-1.09,-1.09,0,*6C
1500091205.34,48829,17.19,73590.8,-0.59,-1.09,-1.09,0,*63
1500091206.61,48830,17.19,73590.0,-0.59,-1.09,-1.05,0,*67
1500091207.83,48831,17.19,73586.8,-0.59,-1.21,-1.17,0,*6F
1500091209.06,48832,17.13,73584.0,-0.59,-1.17,-1.17,0,*69
1500091210.28,48833,17.19,73590.8,-0.59,-1.17,-1.17,0,*68
1500091211.53,48834,17.19,73588.0,-0.59,-1.17,-1.05,0,*6C
1500091212.8,48835,17.19,73588.5,-0.59,-1.05,-1.05,0,*6E
1500091214.08,48836,17.19,73588.3,-0.59,-1.05,-1.05,0,*6D
1500091215.35,48837,17.13,73586.8,-0.59,-1.05,-1.05,0,*6C
1500091216.63,48838,17.19,73586.8,-0.59,-1.05,-1.05,0,*63
1500091217.9,48839,17.19,73588.5,-0.59,-1.05,-1.05,0,*62
1500091219.17,48840,17.19,73584.0,-0.59,-1.05,-1.05,0,*6C
1500091220.44,48841,17.19,73588.3,-0.59,-1.09,-1.09,0,*6D
1500091221.67,48842,17.19,73590.3,-0.57,-1.09,-1.05,0,*6C
1500091222.94,48843,17.19,73590.0,-0.59,-1.05,-0.97,0,*55
1500091224.2,48844,17.19,73584.3,-0.59,-1.09,-1.09,0,*68
1500091225.47,48845,17.19,73590.0,-0.59,-1.09,-1.09,0,*69
1500091226.7,48846,17.19,73586.8,-0.57,-1.09,-1.09,0,*64
1500091227.97,48847,17.19,73590.0,-0.59,-1.05,-1.09,0,*67
1500091229.21,48848,17.13,73584.8,-0.57,-1.09,-1.05,0,*66
1500091230.45,48849,17.19,73586.8,-0.57,-1.05,-1.05,0,*6B
1500091231.7,48850,17.19,73588.5,-0.57,-1.05,-1.05,0,*63
1500091232.94,48851,17.19,73590.8,-0.57,-1.05,-1.09,0,*6E
1500091234.17,48852,17.19,73588.3,-0.57,-1.05,-0.97,0,*5B
1500091235.42,48853,17.19,73590.0,-0.57,-1.05,-1.05,0,*60
1500091236.67,48854,17.19,73590.0,-0.59,-0.97,-0.97,0,*69
1500091237.9,48855,17.19,73590.5,-0.57,-0.97,-0.97,0,*66
1500091239.13,48856,17.13,73586.8,-0.57,-0.97,-0.97,0,*65
1500091240.36,48857,17.19,73588.3,-0.57,-0.97,-0.97,0,*64
1500091241.59,48858,17.19,73590.0,-0.57,-0.97,-0.97,0,*6B
1500091242.82,48859,17.19,73588.0,-0.57,-0.97,-1.05,0,*50
1500091244.07,48860,17.19,73590.0,-0.57,-1.05,-1.05,0,*60
1500091245.3,48861,17.19,73588.5,-0.57,-1.09,-1.09,0,*61
1500091246.55,48862,17.19,73590.0,-0.57,-1.05,-1.05,0,*62
1500091247.78,48863,17.19,73590.8,-0.57,-0.97,-1.05,0,*59
1500091249.04,48864,17.19,73590.0,-0.59,-0.97,-0.97,0,*6A
1500091250.26,48865,17.19,73590.5,-0.57,-0.93,-0.97,0,*61
1500091251.49,48866,17.13,73584.8,-0.57,-0.93,-0.97,0,*62
1500091252.71,48867,17.19,73590.0,-0.57,-0.93,-0.93,0,*67
1500091253.95,48868,17.19,73586.8,-0.57,-1.05,-1.05,0,*68
1500091255.19,48869,17.19,73586.8,-0.57,-1.09,-1.09,0,*69
1500091256.45,48870,17.19,73588.8,-0.55,-1.05,-1.05,0,*63
1500091257.72,48871,17.19,73588.5,-0.55,-1.05,-1.01,0,*66
1500091258.96,48872,17.19,73588.0,-0.57,-1.05,-1.05,0,*63
1500091260.2,48873,17.19,73586.3,-0.57,-1.09,-1.05,0,*6E
1500091261.47,48874,17.19,73590.0,-0.55,-1.05,-1.01,0,*63
1500091262.73,48875,17.19,73590.5,-0.55,-1.01,-1.05,0,*62
1500091263.97,48876,17.19,73586.0,-0.57,-1.05,-1.05,0,*67
1500091265.22,48877,17.19,73588.0,-0.57,-1.05,-1.05,0,*66
1500091266.46,48878,17.19,73588.0,-0.57,-1.05,-1.09,0,*65
1500091267.67,48879,17.19,73588.5,-0.57,-1.09,-1.17,0,*67
1500091268.91,48880,17.19,73590.5,-0.53,-1.05,-1.05,0,*6A
1500091270.18,48881,17.13,73586.8,-0.55,-1.01,-1.01,0,*6D
1500091271.44,48882,17.19,73592.5,-0.55,-1.01,-1.01,0,*6E
1500091272.68,48883,17.13,73586.8,-0.55,-0.93,-0.93,0,*6F
1500091273.9,48884,17.19,73590.0,-0.53,-0.93,-0.89,0,*65
1500091275.16,48885,17.19,73588.5,-0.55,-1.01,-0.93,0,*53
1500091276.42,48886,17.19,73590.3,-0.55,-1.01,-1.01,0,*6A
1500091277.69,48887,17.19,73588.0,-0.55,-1.05,-1.05,0,*6B
1500091278.96,48888,17.19,73588.8,-0.55,-1.05,-1.05,0,*64
1500091280.22,48889,17.19,73590.8,-0.55,-1.13,-1.05,0,*62
1500091281.48,48890,17.19,73588.0,-0.55,-1.13,-1.13,0,*6D
1500091282.72,48891,17.19,73588.5,-0.55,-1.13,-1.17,0,*68
1500091283.96,48892,17.19,73588.8,-0.55,-1.17,-1.13,0,*6B
1500091285.17,48893,17.13,73584.5,-0.55,-1.25,-1.17,0,*6F
1500091286.4,48894,17.19,73588.5,-0.53,-1.13,-1.13,0,*6F
1500091287.66,48895,17.19,73588.3,-0.55,-1.01,-1.13,0,*6B
1500091288.92,48896,17.19,73586.8,-0.55,-1.01,-1.01,0,*6B
1500091290.17,48897,17.19,73586.3,-0.55,-1.17,-1.05,0,*69
1500091291.42,48898,17.19,73588.0,-0.55,-1.13,-1.13,0,*65
1500091292.64,48899,17.19,73588.8,-0.53,-1.13,-1.17,0,*66
1500091293.9,48900,17.13,73586.8,-0.55,-1.13,-1.13,0,*65
1500091295.16,48901,17.19,73586.0,-0.55,-1.13,-1.05,0,*63
1500091296.43,48902,17.19,73586.8,-0.55,-1.05,-1.05,0,*67
1500091297.7,48903,17.19,73586.0,-0.55,-1.05,-1.05,0,*66
1500091298.96,48904,17.19,73588.0,-0.55,-1.05,-1.01,0,*65
1500091300.23,48905,17.13,73586.3,-0.55,-1.05,-1.05,0,*60
1500091301.49,48906,17.19,73588.3,-0.55,-1.01,-1.05,0,*67
1500091302.76,48907,17.19,73588.8,-0.55,-1.05,-1.05,0,*62
1500091304.03,48908,17.19,73588.8,-0.55,-1.05,-1.05,0,*6D
1500091305.27,48909,17.19,73592.0,-0.53,-1.01,-1.01,0,*6A
1500091306.51,48910,17.19,73590.3,-0.53,-1.05,-1.01,0,*66
1500091307.77,48911,17.13,73588.5,-0.55,-1.01,-1.05,0,*61
1500091309.03,48912,17.19,73590.3,-0.55,-1.01,-1.01,0,*66
1500091310.27,48913,17.19,73590.8,-0.53,-1.05,-1.01,0,*65
1500091311.54,48914,17.19,73588.0,-0.55,-1.13,-1.05,0,*67
1500091312.81,48915,17.13,73590.0,-0.55,-1.05,-1.05,0,*61
1500091314.07,48916,17.19,73588.3,-0.55,-1.01,-1.01,0,*62
1500091315.31,48917,17.19,73590.3,-0.53,-1.01,-1.05,0,*61
1500091316.55,48918,17.19,73588.5,-0.53,-1.01,-1.05,0,*6E
1500091317.81,48919,17.19,73592.8,-0.55,-1.01,-1.01,0,*6D
1500091319.06,48920,17.13,73588.5,-0.55,-1.01,-0.93,0,*5D
1500091320.32,48921,17.13,73588.8,-0.55,-1.01,-0.89,0,*57
1500091321.55,48922,17.19,73588.0,-0.53,-0.89,-0.93,0,*68
1500091322.81,48923,17.19,73588.5,-0.55,-1.05,-1.01,0,*60
1500091324.07,48924,17.19,73590.5,-0.55,-1.01,-1.01,0,*63
1500091325.31,48925,17.19,73588.5,-0.53,-1.01,-1.01,0,*64
1500091326.55,48926,17.13,73586.8,-0.53,-1.05,-1.05,0,*67
1500091327.81,48927,17.19,73588.5,-0.55,-1.01,-1.01,0,*60
1500091329.07,48928,17.19,73590.3,-0.55,-1.01,-1.01,0,*6F
1500091330.32,48929,17.19,73590.0,-0.53,-1.01,-1.05,0,*6C
1500091331.55,48930,17.13,73588.3,-0.53,-1.01,-0.89,0,*51
1500091332.79,48931,17.13,73590.3,-0.55,-0.93,-0.89,0,*6C
1500091334.05,48932,17.13,73588.5,-0.55,-1.05,-0.93,0,*5A
1500091335.28,48933,17.13,73590.5,-0.53,-1.01,-0.93,0,*59
1500091336.53,48934,17.19,73592.8,-0.55,-0.93,-1.01,0,*58
1500091337.78,48935,17.19,73592.0,-0.55,-0.93,-0.93,0,*63
1500091339.03,48936,17.19,73590.3,-0.55,-0.89,-0.93,0,*6B
1500091340.25,48937,17.19,73588.5,-0.53,-0.89,-0.89,0,*67
1500091341.47,48938,17.13,73590.0,-0.53,-0.93,-0.89,0,*63
1500091342.7,48939,17.19,73588.3,-0.53,-0.89,-0.89,0,*69
1500091343.93,48940,17.19,73588.0,-0.53,-0.89,-0.93,0,*6C
1500091345.15,48941,17.19,73590.8,-0.53,-0.93,-0.89,0,*6D
1500091346.37,48942,17.19,73592.8,-0.53,-0.89,-0.93,0,*6E
1500091347.59,48943,17.13,73588.8,-0.53,-0.93,-0.89,0,*6F
1500091348.82,48944,17.19,73588.5,-0.53,-0.93,-0.89,0,*68
1500091350.04,48945,17.13,73588.0,-0.53,-0.89,-0.93,0,*69
1500091351.26,48946,17.13,73590.8,-0.53,-0.93,-0.89,0,*6A
1500091352.49,48947,17.19,73588.5,-0.53,-0.89,-0.93,0,*6B
1500091353.71,48948,17.19,73588.8,-0.53,-0.93,-0.89,0,*64
1500091354.96,48949,17.19,73588.8,-0.51,-0.85,-0.85,0,*6C
1500091356.2,48950,17.19,73592.0,-0.51,-0.85,-0.77,0,*69
1500091357.45,48951,17.19,73594.8,-0.51,-0.85,-0.85,0,*65
1500091358.7,48952,17.19,73590.3,-0.51,-0.89,-0.85,0,*6A
1500091359.96,48953,17.19,73588.8,-0.51,-0.89,-0.89,0,*67
1500091361.21,48954,17.19,73588.3,-0.51,-0.89,-0.89,0,*60
1500091362.47,48955,17.19,73592.8,-0.51,-0.97,-0.97,0,*61
1500091363.72,48956,17.13,73586.8,-0.51,-0.97,-0.89,0,*6D
1500091364.98,48957,17.19,73594.5,-0.51,-0.89,-0.89,0,*63
1500091366.23,48958,17.13,73588.3,-0.51,-0.85,-0.85,0,*6C
1500091367.48,48959,17.19,73592.0,-0.51,-0.85,-0.85,0,*6D
1500091368.71,48960,17.19,73592.0,-0.51,-0.77,-0.85,0,*6A
1500091369.9,48961,17.19,73588.5,-0.49,-0.73,-0.77,0,*6B
1500091371.16,48962,17.13,73590.5,-0.51,-0.89,-0.85,0,*69
1500091372.37,48963,17.19,73590.3,-0.49,-0.85,-0.77,0,*60
1500091373.62,48964,17.19,73594.8,-0.51,-0.89,-0.85,0,*6F
1500091374.86,48965,17.19,73592.5,-0.51,-0.89,-0.77,0,*63
1500091376.11,48966,17.19,73590.0,-0.51,-0.85,-0.85,0,*61
1500091377.34,48967,17.19,73590.0,-0.49,-0.89,-0.89,0,*69
1500091378.6,48968,17.19,73590.0,-0.51,-0.97,-0.97,0,*6F
1500091379.85,48969,17.13,73588.3,-0.51,-0.89,-0.89,0,*6E
1500091381.1,48970,17.19,73588.0,-0.51,-0.85,-0.89,0,*6A
1500091382.33,48971,17.19,73588.8,-0.49,-0.89,-0.89,0,*6E
1500091383.59,48972,17.19,73590.8,-0.51,-0.85,-0.85,0,*64
1500091384.84,48973,17.19,73592.0,-0.51,-0.85,-0.89,0,*69
1500091386.08,48974,17.19,73588.8,-0.49,-1.01,-0.97,0,*55
1500091387.32,48975,17.19,73590.5,-0.49,-1.01,-1.01,0,*6A
1500091388.56,48976,17.19,73590.3,-0.49,-1.09,-1.09,0,*69
1500091389.8,48977,17.13,73590.3,-0.49,-1.01,-1.01,0,*68
1500091391.06,48978,17.13,73586.8,-0.51,-1.01,-0.97,0,*50
1500091392.3,48979,17.19,73592.0,-0.49,-1.01,-1.01,0,*66
1500091393.52,48980,17.19,73590.3,-0.49,-1.21,-1.13,0,*61
1500091394.74,48981,17.19,73588.5,-0.51,-1.25,-1.21,0,*6C
1500091395.93,48982,17.19,73588.8,-0.49,-1.25,-1.21,0,*66
1500091397.2,48983,17.19,73590.0,-0.51,-1.13,-1.13,0,*6A
1500091398.46,48984,17.19,73590.8,-0.51,-1.01,-1.09,0,*65
1500091399.7,48985,17.19,73590.3,-0.49,-0.97,-1.01,0,*5B
1500091400.94,48986,17.19,73590.3,-0.49,-0.97,-1.01,0,*58
1500091402.2,48987,17.13,73590.5,-0.51,-1.01,-0.97,0,*50
1500091403.46,48988,17.19,73590.0,-0.51,-1.01,-0.97,0,*5F
1500091404.69,48989,17.19,73592.0,-0.49,-1.09,-1.01,0,*61
1500091405.94,48990,17.13,73588.5,-0.49,-1.01,-1.01,0,*61
1500091407.2,48991,17.19,73592.0,-0.51,-1.01,-1.01,0,*69
1500091408.46,48992,17.19,73588.5,-0.51,-1.01,-0.97,0,*54
1500091409.72,48993,17.19,73590.5,-0.51,-0.97,-0.89,0,*64
1500091410.95,48994,17.19,73592.0,-0.49,-0.89,-0.89,0,*65
1500091412.2,48995,17.19,73592.0,-0.51,-0.89,-0.97,0,*62
1500091413.46,48996,17.19,73588.0,-0.51,-0.97,-0.89,0,*61
1500091414.7,48997,17.19,73588.3,-0.49,-1.01,-1.01,0,*66
1500091415.93,48998,17.19,73592.0,-0.49,-0.89,-0.89,0,*69
1500091417.19,48999,17.13,73588.8,-0.51,-0.89,-0.89,0,*61
1500091418.45,49000,17.13,73586.3,-0.51,-1.01,-1.01,0,*69
1500091419.69,49001,17.13,73590.3,-0.49,-1.09,-1.01,0,*69
1500091420.92,49002,17.13,73588.8,-0.49,-1.09,-0.97,0,*54
1500091422.15,49003,17.19,73590.0,-0.49,-0.97,-0.97,0,*63
1500091423.39,49004,17.13,73588.3,-0.49,-0.97,-0.89,0,*6B
1500091424.64,49005,17.19,73590.8,-0.51,-0.97,-0.89,0,*63
1500091425.87,49006,17.19,73588.5,-0.49,-0.89,-0.85,0,*6A
1500091427.1,49007,17.19,73588.8,-0.49,-0.89,-0.85,0,*6B
1500091428.34,49008,17.19,73588.5,-0.49,-0.97,-0.97,0,*68
1500091429.6,49009,17.19,73588.5,-0.51,-1.01,-0.97,0,*5E
1500091430.85,49010,17.13,73588.0,-0.51,-0.97,-0.89,0,*67
1500091432.09,49011,17.19,73590.8,-0.49,-0.97,-0.89,0,*6F
1500091433.32,49012,17.13,73590.5,-0.49,-0.97,-0.89,0,*6C
1500091434.55,49013,17.19,73588.8,-0.49,-0.89,-0.89,0,*62
1500091435.79,49014,17.13,73590.3,-0.49,-0.89,-1.01,0,*54
1500091437.02,49015,17.13,73590.0,-0.49,-0.89,-0.97,0,*6B
1500091438.25,49016,17.19,73590.5,-0.49,-0.85,-0.85,0,*67
1500091439.48,49017,17.19,73592.3,-0.49,-0.89,-0.85,0,*6A
1500091440.71,49018,17.19,73594.5,-0.49,-1.01,-0.97,0,*57
1500091441.95,49019,17.19,73588.0,-0.49,-1.13,-1.09,0,*63
1500091443.22,49020,17.19,73590.8,-0.51,-1.09,-1.01,0,*63
1500091444.45,49021,17.13,73588.5,-0.49,-1.09,-1.09,0,*63
1500091445.72,49022,17.19,73592.5,-0.51,-1.01,-1.01,0,*69
1500091446.96,49023,17.13,73590.5,-0.49,-1.01,-1.01,0,*61
1500091448.2,49024,17.19,73592.8,-0.49,-1.01,-0.89,0,*57
1500091449.44,49025,17.19,73588.8,-0.49,-1.09,-1.09,0,*67
1500091450.68,49026,17.19,73588.8,-0.49,-1.13,-1.09,0,*6F
1500091451.92,49027,17.19,73588.8,-0.49,-1.09,-1.01,0,*6D
1500091453.15,49028,17.13,73590.0,-0.49,-1.09,-0.97,0,*5C
1500091454.38,49029,17.13,73588.3,-0.49,-1.01,-0.97,0,*55
1500091455.62,49030,17.19,73588.0,-0.49,-1.01,-0.97,0,*5D
1500091456.86,49031,17.13,73590.3,-0.49,-0.97,-1.01,0,*5C
1500091458.09,49032,17.19,73590.0,-0.49,-0.89,-0.89,0,*61
1500091459.32,49033,17.19,73590.5,-0.49,-0.97,-0.97,0,*60
1500091460.57,49034,17.19,73588.5,-0.49,-1.01,-1.01,0,*67
1500091461.8,49035,17.13,73588.3,-0.49,-0.97,-0.97,0,*66
1500091463.05,49036,17.19,73594.3,-0.51,-0.97,-0.89,0,*63
1500091464.32,49037,17.13,73588.3,-0.51,-0.97,-1.01,0,*53
1500091465.55,49038,17.13,73588.0,-0.49,-0.97,-0.89,0,*64
1500091466.78,49039,17.13,73588.3,-0.49,-0.97,-0.89,0,*65
1500091468.03,49040,17.19,73590.8,-0.47,-0.85,-0.85,0,*6A
1500091469.28,49041,17.13,73588.8,-0.47,-0.93,-0.85,0,*6C
1500091470.53,49042,17.13,73590.8,-0.47,-0.97,-0.97,0,*68
1500091471.78,49043,17.19,73592.5,-0.47,-0.97,-0.93,0,*6D
1500091473.04,49044,17.19,73590.5,-0.47,-1.09,-1.09,0,*6E
1500091474.3,49045,17.13,73590.0,-0.47,-1.09,-1.09,0,*6F
1500091475.56,49046,17.13,73588.8,-0.47,-1.09,-1.05,0,*60
1500091476.83,49047,17.13,73584.3,-0.47,-1.05,-1.05,0,*6D
1500091478.07,49048,17.13,73588.3,-0.49,-1.01,-1.01,0,*6C
1500091479.3,49049,17.13,73588.0,-0.49,-0.89,-0.89,0,*6D
1500091480.53,49050,17.19,73590.0,-0.49,-0.85,-0.85,0,*65
1500091481.76,49051,17.13,73588.8,-0.49,-0.85,-0.85,0,*64
1500091482.99,49052,17.13,73590.0,-0.47,-0.85,-0.81,0,*6D
1500091484.22,49053,17.19,73592.8,-0.47,-0.85,-0.81,0,*6C
1500091485.43,49054,17.19,73594.8,-0.47,-0.81,-0.81,0,*6F
1500091486.65,49055,17.13,73592.0,-0.45,-0.85,-0.85,0,*6C
1500091487.88,49056,17.19,73590.5,-0.47,-0.85,-0.81,0,*69
1500091489.11,49057,17.13,73588.8,-0.45,-0.85,-0.85,0,*6E
1500091490.31,49058,17.13,73588.3,-0.45,-0.81,-0.85,0,*65
1500091491.56,49059,17.13,73590.5,-0.47,-0.93,-0.85,0,*65
1500091492.81,49060,17.19,73592.5,-0.47,-0.97,-0.97,0,*68
1500091494.06,49061,17.13,73588.3,-0.47,-0.93,-0.97,0,*6D
1500091495.29,49062,17.13,73590.8,-0.47,-0.93,-0.81,0,*69
1500091496.51,49063,17.13,73590.8,-0.45,-0.93,-0.85,0,*6E
1500091497.76,49064,17.19,73592.0,-0.47,-0.93,-0.85,0,*6B
1500091498.98,49065,17.13,73590.0,-0.45,-0.85,-0.93,0,*68
1500091500.23,49066,17.19,73592.3,-0.47,-0.85,-0.93,0,*69
1500091501.46,49067,17.19,73594.0,-0.47,-0.81,-0.85,0,*6B
1500091502.71,49068,17.19,73592.8,-0.47,-0.85,-0.85,0,*60
1500091503.94,49069,17.13,73588.5,-0.45,-0.85,-0.85,0,*63
1500091505.16,49070,17.13,73590.8,-0.47,-0.85,-0.81,0,*6D
1500091506.39,49071,17.13,73594.0,-0.45,-0.85,-0.85,0,*6A
1500091507.6,49072,17.13,73592.3,-0.45,-0.85,-0.81,0,*6D
1500091508.83,49073,17.19,73594.8,-0.47,-0.85,-0.81,0,*6E
1500091510.05,49074,17.19,73594.0,-0.45,-0.85,-0.85,0,*6F
1500091511.31,49075,17.13,73588.0,-0.47,-0.97,-0.93,0,*68
1500091512.53,49076,17.13,73590.0,-0.47,-0.93,-0.81,0,*6C
1500091513.76,49077,17.13,73592.3,-0.47,-0.81,-0.85,0,*6A
1500091514.97,49078,17.13,73588.5,-0.45,-0.85,-0.81,0,*67
1500091516.22,49079,17.13,73594.0,-0.47,-0.85,-0.85,0,*60
1500091517.42,49080,17.13,73592.0,-0.45,-0.81,-0.85,0,*60
1500091518.63,49081,17.19,73592.0,-0.45,-0.85,-0.81,0,*61
1500091519.85,49082,17.19,73592.5,-0.45,-0.85,-0.85,0,*66
1500091521.08,49083,17.13,73590.5,-0.47,-0.85,-0.81,0,*61
1500091522.31,49084,17.13,73590.5,-0.45,-0.85,-0.85,0,*60
1500091523.51,49085,17.13,73590.5,-0.45,-0.85,-0.81,0,*65
1500091524.72,49086,17.19,73594.5,-0.45,-0.85,-0.81,0,*66
1500091525.95,49087,17.13,73590.5,-0.45,-0.85,-0.85,0,*63
1500091527.15,49088,17.13,73590.3,-0.45,-0.85,-0.81,0,*68
1500091528.38,49089,17.13,73594.0,-0.45,-0.85,-0.85,0,*6D
1500091529.59,49090,17.13,73588.5,-0.45,-0.85,-0.81,0,*61
1500091530.77,49091,17.19,73592.3,-0.45,-0.81,-0.81,0,*64
1500091531.95,49092,17.13,73590.5,-0.45,-0.81,-0.81,0,*67
1500091533.18,49093,17.19,73592.8,-0.45,-0.85,-0.85,0,*66
1500091534.39,49094,17.19,73594.0,-0.45,-0.85,-0.81,0,*65
1500091535.59,49095,17.19,73590.8,-0.45,-0.85,-0.81,0,*64
1500091536.8,49096,17.19,73592.8,-0.43,-0.77,-0.81,0,*6C
1500091538.01,49097,17.13,73592.0,-0.43,-0.81,-0.81,0,*64
1500091539.21,49098,17.13,73588.0,-0.43,-0.77,-0.77,0,*6B
1500091540.44,49099,17.19,73590.5,-0.45,-0.85,-0.85,0,*6C
1500091541.65,49100,17.19,73592.0,-0.39,-0.73,-0.77,0,*62
1500091542.86,49101,17.19,73592.5,-0.43,-0.81,-0.81,0,*6A
1500091544.06,49102,17.19,73594.8,-0.43,-0.77,-0.81,0,*60
1500091545.27,49103,17.19,73590.5,-0.43,-0.77,-0.77,0,*68
1500091546.48,49104,17.19,73590.5,-0.43,-0.77,-0.77,0,*6F
1500091547.68,49105,17.19,73594.0,-0.43,-0.77,-0.81,0,*67
1500091548.9,49106,17.13,73588.5,-0.39,-0.73,-0.77,0,*64
1500091550.11,49107,17.19,73594.8,-0.43,-0.81,-0.77,0,*65
1500091551.32,49108,17.19,73592.0,-0.43,-0.81,-0.73,0,*6E
1500091552.55,49109,17.19,73592.3,-0.43,-0.81,-0.89,0,*6A
1500091553.75,49110,17.13,73588.3,-0.43,-0.81,-0.81,0,*6A
1500091554.96,49111,17.19,73592.3,-0.39,-0.77,-0.73,0,*62
1500091556.17,49112,17.19,73592.5,-0.43,-0.77,-0.81,0,*61
1500091557.4,49113,17.19,73592.5,-0.43,-0.89,-0.77,0,*68
1500091558.61,49114,17.19,73594.0,-0.43,-0.81,-0.77,0,*67
1500091559.82,49115,17.19,73590.5,-0.43,-0.77,-0.77,0,*6F
1500091561.03,49116,17.19,73592.8,-0.43,-0.81,-0.81,0,*6C
1500091562.23,49117,17.19,73592.0,-0.43,-0.77,-0.81,0,*64
1500091563.44,49118,17.13,73590.3,-0.39,-0.77,-0.73,0,*6B
1500091564.65,49119,17.19,73594.3,-0.43,-0.77,-0.81,0,*6A
1500091565.88,49120,17.19,73592.5,-0.43,-0.81,-0.89,0,*61
1500091567.1,49121,17.19,73592.0,-0.43,-0.89,-0.81,0,*60
1500091568.31,49122,17.19,73592.3,-0.43,-0.81,-0.81,0,*6B
1500091569.52,49123,17.19,73594.0,-0.43,-0.77,-0.77,0,*6A
1500091570.75,49124,17.13,73588.0,-0.39,-0.77,-0.85,0,*6D
1500091571.96,49125,17.19,73592.0,-0.39,-0.73,-0.77,0,*65
1500091573.17,49126,17.19,73592.5,-0.43,-0.81,-0.81,0,*6F
1500091574.38,49127,17.19,73592.0,-0.39,-0.73,-0.77,0,*67
1500091575.59,49128,17.19,73594.3,-0.39,-0.73,-0.73,0,*6C
1500091576.8,49129,17.19,73594.5,-0.39,-0.77,-0.73,0,*69
1500091578.01,49130,17.13,73590.3,-0.43,-0.77,-0.77,0,*68
1500091579.22,49131,17.19,73590.5,-0.39,-0.65,-0.65,0,*64
1500091580.42,49132,17.19,73594.5,-0.43,-0.77,-0.69,0,*65
1500091581.63,49133,17.19,73590.5,-0.43,-0.77,-0.77,0,*6B
1500091582.83,49134,17.13,73588.5,-0.43,-0.77,-0.69,0,*63
1500091584.03,49135,17.19,73594.0,-0.39,-0.65,-0.61,0,*64
1500091585.24,49136,17.19,73590.0,-0.43,-0.77,-0.81,0,*67
1500091586.45,49137,17.13,73590.5,-0.39,-0.77,-0.77,0,*62
1500091587.66,49138,17.13,73586.5,-0.39,-0.73,-0.77,0,*69
1500091588.87,49139,17.19,73590.5,-0.39,-0.73,-0.73,0,*6C
1500091590.09,49140,17.19,73594.0,-0.39,-0.73,-0.77,0,*66
1500091591.3,49141,17.19,73592.3,-0.39,-0.73,-0.73,0,*63
1500091592.51,49142,17.19,73590.8,-0.43,-0.81,-0.77,0,*64
1500091593.72,49143,17.13,73590.3,-0.43,-0.81,-0.81,0,*6C
1500091594.93,49144,17.13,73588.0,-0.39,-0.73,-0.77,0,*62
1500091596.15,49145,17.13,73592.0,-0.39,-0.73,-0.73,0,*67
1500091597.36,49146,17.19,73592.8,-0.39,-0.73,-0.77,0,*60
1500091598.54,49147,17.19,73590.5,-0.37,-0.77,-0.73,0,*6F
1500091599.73,49148,17.13,73588.8,-0.37,-0.73,-0.73,0,*64
1500091600.92,49149,17.19,73590.8,-0.37,-0.73,-0.73,0,*65
1500091602.1,49150,17.13,73588.0,-0.37,-0.77,-0.73,0,*69
1500091603.29,49151,17.19,73594.0,-0.37,-0.73,-0.73,0,*6C
1500091604.48,49152,17.13,73590.0,-0.37,-0.73,-0.73,0,*6F
1500091605.69,49153,17.13,73588.3,-0.39,-0.73,-0.73,0,*60
1500091606.88,49154,17.13,73588.8,-0.37,-0.77,-0.73,0,*6D
1500091608.06,49155,17.19,73592.8,-0.37,-0.73,-0.77,0,*6C
1500091609.24,49156,17.19,73592.3,-0.37,-0.73,-0.65,0,*6C
1500091610.42,49157,17.19,73594.5,-0.37,-0.65,-0.65,0,*6A
1500091611.61,49158,17.13,73590.3,-0.37,-0.65,-0.73,0,*62
1500091612.79,49159,17.13,73590.3,-0.37,-0.65,-0.73,0,*63
1500091613.98,49160,17.13,73588.8,-0.37,-0.73,-0.73,0,*6E
1500091615.19,49161,17.13,73592.3,-0.35,-0.73,-0.69,0,*66
1500091616.4,49162,17.19,73590.5,-0.35,-0.73,-0.69,0,*65
1500091617.61,49163,17.13,73590.0,-0.37,-0.85,-0.73,0,*64
1500091618.79,49164,17.13,73590.5,-0.37,-0.77,-0.73,0,*6E
1500091619.98,49165,17.13,73590.8,-0.37,-0.73,-0.73,0,*6B
1500091621.18,49166,17.19,73592.5,-0.35,-0.61,-0.69,0,*62
1500091622.37,49167,17.13,73590.3,-0.37,-0.73,-0.73,0,*69
1500091623.55,49168,17.19,73592.3,-0.37,-0.77,-0.77,0,*66
1500091624.74,49169,17.13,73592.3,-0.37,-0.73,-0.77,0,*63
1500091625.93,49170,17.19,73594.8,-0.37,-0.77,-0.73,0,*6B
1500091627.14,49171,17.13,73590.5,-0.35,-0.73,-0.73,0,*6C
1500091628.35,49172,17.13,73588.8,-0.37,-0.85,-0.73,0,*64
1500091629.56,49173,17.13,73590.8,-0.37,-0.85,-0.77,0,*61
1500091630.77,49174,17.19,73592.0,-0.35,-0.73,-0.69,0,*62
1500091631.98,49175,17.13,73586.8,-0.35,-0.73,-0.73,0,*68
1500091633.19,49176,17.13,73588.8,-0.37,-0.85,-0.73,0,*60
1500091634.4,49177,17.13,73590.8,-0.35,-0.73,-0.69,0,*61
1500091635.6,49178,17.13,73588.8,-0.37,-0.77,-0.85,0,*6A
1500091636.82,49179,17.19,73594.8,-0.35,-0.73,-0.73,0,*64
1500091638.03,49180,17.19,73594.5,-0.35,-0.69,-0.69,0,*62
1500091639.21,49181,17.13,73588.5,-0.37,-0.77,-0.73,0,*65
1500091640.4,49182,17.13,73592.3,-0.37,-0.73,-0.73,0,*62
1500091641.61,49183,17.13,73590.5,-0.35,-0.73,-0.69,0,*6A
1500091642.8,49184,17.19,73592.5,-0.37,-0.73,-0.77,0,*60
1500091644.01,49185,17.13,73592.5,-0.35,-0.73,-0.73,0,*67
1500091645.22,49186,17.13,73588.5,-0.35,-0.81,-0.81,0,*64
1500091646.43,49187,17.13,73590.3,-0.35,-0.73,-0.69,0,*6E
1500091647.65,49188,17.13,73590.8,-0.35,-0.81,-0.73,0,*67
1500091648.86,49189,17.19,73594.5,-0.35,-0.81,-0.73,0,*66
1500091650.07,49190,17.13,73590.0,-0.35,-0.73,-0.73,0,*63
1500091651.26,49191,17.13,73590.0,-0.37,-0.77,-0.73,0,*64
1500091652.44,49192,17.13,73588.0,-0.37,-0.77,-0.77,0,*63
1500091653.63,49193,17.13,73594.0,-0.37,-0.73,-0.73,0,*62
1500091654.81,49194,17.13,73588.8,-0.37,-0.77,-0.73,0,*61
1500091656.0,49195,17.13,73588.5,-0.37,-0.73,-0.73,0,*64
1500091657.22,49196,17.13,73590.8,-0.35,-0.73,-0.73,0,*65
1500091658.44,49197,17.13,73590.8,-0.37,-0.85,-0.89,0,*6A
1500091659.67,49198,17.13,73588.0,-0.37,-0.85,-0.85,0,*69
1500091660.92,49199,17.19,73592.0,-0.35,-0.85,-0.85,0,*6A
1500091662.13,49200,17.19,73592.3,-0.35,-0.69,-0.73,0,*62
1500091663.35,49201,17.13,73594.8,-0.35,-0.73,-0.69,0,*63
1500091664.53,49202,17.13,73590.3,-0.37,-0.81,-0.69,0,*6F
1500091665.76,49203,17.13,73590.8,-0.37,-0.85,-0.85,0,*68
1500091666.99,49204,17.13,73592.3,-0.35,-0.81,-0.85,0,*69
1500091668.22,49205,17.13,73590.8,-0.35,-0.81,-0.85,0,*68
1500091669.43,49206,17.13,73592.0,-0.35,-0.73,-0.81,0,*62
1500091670.68,49207,17.13,73590.5,-0.35,-0.85,-0.85,0,*6E
1500091671.89,49208,17.13,73590.8,-0.37,-0.85,-0.77,0,*6E
1500091673.14,49209,17.13,73590.0,-0.35,-0.85,-0.85,0,*60
1500091674.38,49210,17.13,73594.0,-0.35,-0.85,-0.81,0,*6C
1500091675.63,49211,17.13,73592.5,-0.35,-0.85,-0.85,0,*69
1500091676.86,49212,17.13,73590.8,-0.35,-0.85,-0.81,0,*6E
1500091678.09,49213,17.13,73590.0,-0.37,-0.85,-0.85,0,*69
1500091679.31,49214,17.13,73592.0,-0.37,-0.89,-0.89,0,*6E
1500091680.54,49215,17.13,73594.8,-0.37,-0.85,-0.89,0,*63
1500091681.75,49216,17.13,73594.0,-0.35,-0.81,-0.73,0,*63
1500091682.96,49217,17.13,73588.8,-0.37,-0.85,-0.77,0,*60
1500091684.15,49218,17.13,73592.0,-0.37,-0.73,-0.77,0,*66
1500091685.36,49219,17.13,73592.5,-0.35,-0.73,-0.69,0,*6A
1500091686.55,49220,17.13,73592.0,-0.37,-0.73,-0.73,0,*69
1500091687.76,49221,17.19,73594.0,-0.35,-0.73,-0.73,0,*6A
1500091688.95,49222,17.13,73590.8,-0.37,-0.73,-0.77,0,*6F
1500091690.18,49223,17.13,73592.5,-0.37,-0.85,-0.85,0,*6A
1500091691.41,49224,17.13,73592.5,-0.35,-0.85,-0.81,0,*6B
1500091692.63,49225,17.13,73592.8,-0.37,-0.85,-0.85,0,*6C
1500091693.85,49226,17.13,73594.3,-0.35,-0.73,-0.73,0,*6D
1500091695.05,49227,17.19,73594.0,-0.35,-0.73,-0.61,0,*6F
1500091696.26,49228,17.19,73592.8,-0.35,-0.69,-0.69,0,*63
1500091697.5,49229,17.19,73594.3,-0.35,-0.85,-0.73,0,*6B
1500091698.73,49230,17.13,73594.8,-0.35,-0.85,-0.81,0,*6E
1500091699.98,49231,17.13,73588.5,-0.35,-0.93,-0.93,0,*6B
1500091701.23,49232,17.13,73592.8,-0.35,-0.93,-0.97,0,*6C
1500091702.49,49233,17.13,73594.5,-0.35,-1.05,-0.97,0,*53
1500091703.75,49234,17.13,73588.0,-0.35,-1.05,-0.97,0,*54
1500091704.98,49235,17.13,73590.0,-0.37,-0.97,-0.97,0,*6D
1500091706.23,49236,17.13,73592.0,-0.35,-0.93,-0.85,0,*6B
1500091707.46,49237,17.13,73594.3,-0.35,-0.81,-0.85,0,*69
1500091708.67,49238,17.13,73592.8,-0.35,-0.73,-0.81,0,*6F